Frankfort, KY

12:03 AM EDT on April 27, 2018 (GMT -0400)
Capital City

Weather History for KFFT - December, 2013

Change the Weather History Date:

Tuesday, December 10, 2013

  Actual Average Record
Temperature  
Mean Temperature 24 °F 36 °F  
Max Temperature 30 °F 46 °F 70 °F (1952)
Min Temperature 17 °F 27 °F -8 °F (1917)
Degree Days  
Heating Degree Days 41 28  
Month to date heating degree days 274 268  
Since 1 July heating degree days 1317 1179  
Cooling Degree Days 0 0  
Month to date cooling degree days 0 0  
Year to date cooling degree days 1127 1155  
Moisture  
Dew Point 19 °F    
Average Humidity 78    
Maximum Humidity 92    
Minimum Humidity 63    
Precipitation  
Precipitation 0.01 in 0.15 in 2.35 in (1952)
Month to date precipitation 2.12 1.45  
Year to date precipitation 47.34 43.06  
Sea Level Pressure  
Sea Level Pressure 30.26 in    
Wind  
Wind Speed 7 mph (WNW)    
Max Wind Speed 18 mph    
Max Gust Speed 23 mph    
Visibility 7 miles    
Events Snow    
T = Trace of Precipitation, MM = Missing Value Source: NWS Daily Summary

Daily Weather History Graph

Daily Weather History Graph

Search for Another Location

Airport or City:

Astronomy

Dec. 10, 2013 Rise Set
Actual Time 7:45 AM EST 5:19 PM EST
Civil Twilight 7:15 AM EST 5:49 PM EST
Nautical Twilight 6:42 AM EST 6:22 PM EST
Astronomical Twilight 6:10 AM EST 6:54 PM EST
Moon 1:15 PM EST (12/10) 1:07 AM EST (12/10)
Length of Visible Light 10h 33m
Length of Day
9h 34m
First Quarter, 61% of the Moon is Illuminated
Dec 10
First Quarter
Dec 17
Full
Dec 25
Last Quarter
Jan 1
New
Jan 7
First Quarter

Hourly Weather History & Observations

Time (EST) Temp. Windchill Dew Point Humidity Pressure Visibility Wind Dir Wind Speed Gust Speed Precip Events Conditions
12:53 AM 26.1 °F 18.4 °F 21.9 °F 84% 30.22 in 9.0 mi NW 6.9 mph - N/A   Mostly Cloudy
1:53 AM 26.1 °F 21.9 °F 19.0 °F 75% 30.18 in 10.0 mi North 3.5 mph - N/A   Overcast
2:53 AM 25.0 °F 18.1 °F 19.9 °F 81% 30.20 in 10.0 mi NNW 5.8 mph - N/A   Overcast
3:53 AM 25.0 °F 17.1 °F 19.9 °F 81% 30.18 in 10.0 mi NNW 6.9 mph - N/A   Overcast
4:53 AM 24.1 °F 14.4 °F 17.1 °F 75% 30.17 in 10.0 mi NNW 9.2 mph - N/A   Overcast
5:53 AM 24.1 °F 18.2 °F 18.0 °F 77% 30.18 in 10.0 mi NNW 4.6 mph - N/A   Overcast
6:53 AM 23.0 °F 13.9 °F 19.0 °F 85% 30.20 in 9.0 mi NNW 8.1 mph - N/A   Overcast
7:04 AM 23.0 °F 13.9 °F 19.4 °F 86% 30.18 in 5.0 mi NNW 8.1 mph - 0.00 in Snow Light Snow
7:15 AM 23.0 °F 15.8 °F 21.2 °F 93% 30.19 in 2.5 mi NW 5.8 mph - 0.00 in Snow Light Snow
7:35 AM 23.0 °F 14.7 °F 19.4 °F 86% 30.20 in 1.8 mi WNW 6.9 mph - 0.01 in Snow Light Snow
7:53 AM 21.9 °F 13.4 °F 19.9 °F 92% 30.24 in 2.0 mi WNW 6.9 mph - 0.01 in Snow Light Snow
8:02 AM 21.2 °F 13.6 °F 19.4 °F 93% 30.22 in 1.2 mi NW 5.8 mph - 0.00 in Snow Light Snow
8:25 AM 21.2 °F - 19.4 °F 93% 30.23 in 1.8 mi Calm Calm - 0.00 in Snow Light Snow
8:45 AM 21.2 °F 12.6 °F 19.4 °F 93% 30.24 in 2.5 mi WNW 6.9 mph - 0.00 in Snow Light Snow
8:53 AM 21.9 °F 15.7 °F 19.9 °F 92% 30.28 in 2.5 mi WNW 4.6 mph - 0.00 in Snow Light Snow
9:02 AM 21.2 °F 16.4 °F 19.4 °F 93% 30.25 in 3.0 mi West 3.5 mph - 0.00 in Snow Light Snow
9:04 AM 21.2 °F 14.9 °F 19.4 °F 93% 30.25 in 3.0 mi West 4.6 mph - 0.00 in Snow Light Snow
9:07 AM 21.2 °F 14.9 °F 19.4 °F 93% 30.25 in 2.5 mi West 4.6 mph - 0.00 in Snow Light Snow
9:14 AM 21.2 °F 11.7 °F 19.4 °F 93% 30.25 in 3.0 mi WNW 8.1 mph - 0.00 in Snow Light Snow
9:44 AM 23.0 °F 11.1 °F 19.4 °F 86% 30.26 in 8.0 mi WNW 12.7 mph 19.6 mph 0.00 in   Overcast
9:53 AM 23.0 °F 12.4 °F 18.0 °F 81% 30.30 in 10.0 mi West 10.4 mph - 0.00 in   Mostly Cloudy
10:53 AM 24.1 °F 16.0 °F 19.9 °F 84% 30.30 in 9.0 mi West 6.9 mph - N/A   Overcast
11:53 AM 24.1 °F 14.4 °F 19.0 °F 81% 30.31 in 10.0 mi West 9.2 mph - N/A   Overcast
12:39 PM 24.8 °F 13.4 °F 19.4 °F 80% 30.26 in 10.0 mi WSW 12.7 mph 19.6 mph N/A   Scattered Clouds
12:53 PM 26.1 °F 16.2 °F 19.9 °F 78% 30.28 in 10.0 mi SW 10.4 mph - N/A   Partly Cloudy
1:53 PM 28.0 °F 18.6 °F 21.0 °F 75% 30.26 in 10.0 mi SW 10.4 mph - N/A   Clear
2:53 PM 30.0 °F 20.5 °F 19.9 °F 66% 30.27 in 10.0 mi WSW 11.5 mph - N/A   Clear
3:53 PM 30.0 °F 19.5 °F 21.0 °F 69% 30.27 in 10.0 mi SW 13.8 mph - N/A   Clear
4:53 PM 28.9 °F 19.8 °F 19.9 °F 69% 30.28 in 10.0 mi SW 10.4 mph - N/A   Clear
5:53 PM 28.0 °F 20.0 °F 19.0 °F 69% 30.31 in 10.0 mi WSW 8.1 mph - N/A   Clear
6:53 PM 27.0 °F 21.6 °F 19.0 °F 72% 30.32 in 10.0 mi WSW 4.6 mph - N/A   Clear
7:53 PM 21.9 °F 15.7 °F 18.0 °F 85% 30.34 in 10.0 mi SSW 4.6 mph - N/A   Clear
8:53 PM 21.9 °F - 19.0 °F 89% 30.33 in 10.0 mi Calm Calm - N/A   Clear
9:53 PM 19.9 °F - 17.1 °F 89% 30.35 in 9.0 mi Calm Calm - N/A   Clear
10:53 PM 18.0 °F - 16.0 °F 92% 30.37 in 8.0 mi Calm Calm - N/A   Clear
11:53 PM 18.0 °F - 15.1 °F 88% 30.40 in 7.0 mi Calm Calm - N/A   Clear